DW8163 Charlestown RI US current weather conditions

sailwx.info

Wind from 168 at 1 knots gusting 4

Air temperature 27.8° C
Dewpoint 23.1° C

Last reported at 2020-Aug-09 20:03 UTC.
Time now 2020-Aug-09 20:59 UTC

Location: N 41°25' W 071°38'.
View on Google Maps.

See reports from other nearby stations

  
Tides and Currents Weather Stations Pressure Air Temp Water Temp Dewpoint Dewpoint Depression Visibility Wind Speed Wind Dir Waves Ship Positions
date/time (UTC)wind fromknots sea level pressurealtimeterstation pressurevisibilityair tempwater tempwave heightnotes
2020-Aug-09 20:03 168 1 gusting 4 27.8
2020-Aug-09 19:48 148 2 gusting 6 27.8
2020-Aug-09 19:31 210 1 gusting 6 27.8
2020-Aug-09 19:16 292 2 gusting 9 27.8
2020-Aug-09 19:01 247 2 gusting 6 28.3
2020-Aug-09 18:46 175 2 gusting 6 28.3
2020-Aug-09 18:31 244 2 gusting 7 28.9
2020-Aug-09 18:17 240 0 gusting 6 28.9
2020-Aug-09 18:01 284 0 gusting 4 28.9
2020-Aug-09 17:46 209 1 gusting 6 28.3
2020-Aug-09 17:31 009 0 gusting 6 28.3
2020-Aug-09 17:16 235 1 gusting 6 28.3
2020-Aug-09 17:00 107 2 gusting 5 28.3
2020-Aug-09 16:45 157 0 gusting 6 28.3
2020-Aug-09 16:31 173 0 gusting 6 28.3
2020-Aug-09 16:15 199 1 gusting 6 28.3
2020-Aug-09 16:00 285 0 gusting 3 28.3
2020-Aug-09 15:46 144 0 gusting 5 27.8
2020-Aug-09 15:30 144 0 gusting 4 28.3
2020-Aug-09 15:16 225 0 gusting 5 27.8
2020-Aug-09 15:01 273 1 gusting 4 27.8
2020-Aug-09 14:45 246 0 gusting 6 27.2
2020-Aug-09 14:31 348 26.7
2020-Aug-09 14:15 267 0 gusting 5 26.7
2020-Aug-09 14:00 228 0 gusting 3 25.6
2020-Aug-09 13:45 246 0 gusting 4 25.0
2020-Aug-09 13:30 183 1 gusting 5 24.4
2020-Aug-09 13:15 243 2 gusting 4 23.9
2020-Aug-09 13:00 240 1 gusting 4 23.3
2020-Aug-09 12:45 217 0 gusting 5 22.8
2020-Aug-09 12:31 224 0 gusting 3 22.8
2020-Aug-09 12:17 225 22.2
2020-Aug-09 12:01 163 0 gusting 3 22.2
2020-Aug-09 11:46 240 0 gusting 5 21.7
2020-Aug-09 11:31 180 0 gusting 2 21.7
2020-Aug-09 11:16 236 21.1
2020-Aug-09 11:01 235 0 gusting 2 21.1
2020-Aug-09 10:46 238 20.6
2020-Aug-09 10:30 200 20.6
2020-Aug-09 10:16 229 20.6
2020-Aug-09 10:01 229 20.6
2020-Aug-09 09:47 190 20.6
2020-Aug-09 09:31 190 20.6
2020-Aug-09 09:17 190 20.0
2020-Aug-09 09:00 085 20.0
2020-Aug-09 08:46 223 20.0
2020-Aug-09 08:31 151 19.4
2020-Aug-09 08:16 150 19.4
2020-Aug-09 08:01 150 18.9
2020-Aug-09 07:46 150 19.4
2020-Aug-09 07:30 150 19.4
2020-Aug-09 07:15 150 19.4
2020-Aug-09 07:00 150 20.0
2020-Aug-09 06:46 150 20.0
2020-Aug-09 06:30 150 20.0
2020-Aug-09 06:15 150 20.6
2020-Aug-09 06:01 150 20.6
2020-Aug-09 05:46 150 20.6
2020-Aug-09 05:31 150 20.6
2020-Aug-09 05:15 150 20.6
2020-Aug-09 05:01 150 20.6
2020-Aug-09 04:47 141 20.6
2020-Aug-09 04:31 141 21.1
2020-Aug-09 04:15 141 21.1
2020-Aug-09 04:00 140 21.1
2020-Aug-09 03:46 140 21.1
2020-Aug-09 03:31 140 21.1
2020-Aug-09 03:15 140 20.6
2020-Aug-09 03:00 140 0 gusting 1 20.6
2020-Aug-09 02:45 140 20.6
2020-Aug-09 02:30 140 20.6
2020-Aug-09 02:15 140 20.6
2020-Aug-09 02:00 140 21.1
2020-Aug-09 01:45 202 21.1
2020-Aug-09 01:30 202 21.1
2020-Aug-09 01:15 197 21.7
2020-Aug-09 01:00 197 21.7
2020-Aug-09 00:45 220 21.7
2020-Aug-09 00:30 189 21.7
2020-Aug-09 00:15 223 22.2
2020-Aug-09 00:00 171 22.2
2020-Aug-08 23:45 169 22.8
2020-Aug-08 23:30 178 22.8
2020-Aug-08 23:15 240 23.3
2020-Aug-08 23:00 211 0 gusting 3 23.3
2020-Aug-08 22:45 256 0 gusting 3 23.9
2020-Aug-08 22:30 134 24.4
2020-Aug-08 22:15 104 0 gusting 3 25.0
2020-Aug-08 22:00 078 25.6
2020-Aug-08 21:45 172 0 gusting 2 25.6
2020-Aug-08 21:30 146 0 gusting 3 26.1
2020-Aug-08 21:15 239 0 gusting 5 26.1
2020-Aug-08 21:02 355 1 gusting 6 26.1
2020-Aug-08 20:47 261 0 gusting 4 26.7
2020-Aug-08 20:31 176 0 gusting 4 26.7
2020-Aug-08 20:16 132 0 gusting 2 26.7
2020-Aug-08 20:02 118 0 gusting 4 26.7
2020-Aug-08 19:46 250 0 gusting 6 26.1
2020-Aug-08 19:31 117 0 gusting 5 26.1
2020-Aug-08 19:16 122 1 gusting 3 26.1
2020-Aug-08 19:01 113 2 gusting 6 25.6
2020-Aug-08 18:46 132 1 gusting 6 26.1
2020-Aug-08 18:31 100 2 gusting 5 26.1
2020-Aug-08 18:16 086 3 gusting 6 26.1
2020-Aug-08 18:01 115 1 gusting 6 26.7
2020-Aug-08 17:46 080 2 gusting 5 26.7
2020-Aug-08 17:32 176 0 gusting 2 26.7
2020-Aug-08 17:16 087 1 gusting 4 26.1
2020-Aug-08 17:01 032 0 gusting 4 26.1
2020-Aug-08 16:47 080 1 gusting 5 25.6
2020-Aug-08 16:31 061 1 gusting 5 25.6
2020-Aug-08 16:15 075 1 gusting 3 25.6
2020-Aug-08 16:00 066 0 gusting 2 25.6
2020-Aug-08 15:45 088 1 gusting 4 25.0
2020-Aug-08 15:30 096 1 gusting 4 25.0
2020-Aug-08 15:15 090 2 gusting 4 24.4
2020-Aug-08 15:01 062 0 gusting 3 25.0
2020-Aug-08 14:46 031 0 gusting 6 25.0
2020-Aug-08 14:30 065 0 gusting 4 25.0
2020-Aug-08 14:16 032 24.4
2020-Aug-08 14:00 034 0 gusting 2 24.4
2020-Aug-08 13:45 276 0 gusting 3 23.9
2020-Aug-08 13:31 005 0 gusting 3 23.3
2020-Aug-08 13:16 074 1 gusting 2 23.3
2020-Aug-08 13:00 080 0 gusting 2 22.8
2020-Aug-08 12:45 022 0 gusting 4 22.2
2020-Aug-08 12:30 040 0 gusting 4 21.7
2020-Aug-08 12:15 043 1 gusting 4 21.1
2020-Aug-08 12:00 056 0 gusting 3 20.6
2020-Aug-08 11:45 072 0 gusting 5 20.0
2020-Aug-08 11:30 010 0 gusting 2 20.0
2020-Aug-08 11:15 005 19.4
2020-Aug-08 11:00 005 0 gusting 2 19.4
2020-Aug-08 10:45 042 19.4
2020-Aug-08 10:30 042 19.4
2020-Aug-08 10:15 067 0 gusting 2 19.4
2020-Aug-08 10:01 028 19.4
2020-Aug-08 10:00 028 19.4
2020-Aug-08 09:47 336 19.4
2020-Aug-08 09:31 015 19.4
2020-Aug-08 09:16 015 19.4
2020-Aug-08 09:01 323 19.4
2020-Aug-08 08:46 323 19.4
2020-Aug-08 08:32 005 19.4
2020-Aug-08 08:17 005 19.4
2020-Aug-08 08:01 304 19.4
2020-Aug-08 07:46 274 19.4
2020-Aug-08 07:31 005 19.4
2020-Aug-08 07:16 073 19.4
2020-Aug-08 07:02 073 19.4
2020-Aug-08 06:47 073 19.4
2020-Aug-08 06:31 054 19.4
2020-Aug-08 06:16 034 0 gusting 3 19.4
2020-Aug-08 06:02 012 19.4
2020-Aug-08 05:46 012 19.4
2020-Aug-08 05:31 012 20.0
2020-Aug-08 05:16 012 20.0
2020-Aug-08 05:01 012 20.0
2020-Aug-08 04:46 012 20.0
2020-Aug-08 04:30 093 20.6
2020-Aug-08 04:16 093 0 gusting 1 20.6
2020-Aug-08 04:01 094 20.6
2020-Aug-08 03:47 033 21.1
2020-Aug-08 03:30 009 21.1
2020-Aug-08 03:16 096 21.7
2020-Aug-08 03:00 096 21.7
2020-Aug-08 02:46 096 21.7
2020-Aug-08 02:31 096 22.2
2020-Aug-08 02:15 096 0 gusting 2 22.2
2020-Aug-08 02:00 096 0 gusting 1 21.7
2020-Aug-08 01:46 097 0 gusting 1 21.7
2020-Aug-08 01:31 097 0 gusting 1 21.7
2020-Aug-08 01:16 097 0 gusting 1 21.7
2020-Aug-08 01:01 097 21.7
2020-Aug-08 00:46 097 22.2
2020-Aug-08 00:31 097 22.2
2020-Aug-08 00:15 097 22.2
2020-Aug-08 00:01 097 22.8
2020-Aug-07 23:47 097 0 gusting 1 23.3
2020-Aug-07 23:30 097 23.9
2020-Aug-07 23:16 097 0 gusting 2 23.9
2020-Aug-07 23:01 097 0 gusting 2 24.4
2020-Aug-07 22:46 090 0 gusting 2 24.4
2020-Aug-07 22:31 092 1 gusting 2 25.0
2020-Aug-07 22:16 098 1 gusting 2 25.0
2020-Aug-07 22:00 094 0 gusting 2 25.6
2020-Aug-07 21:45 094 0 gusting 2 25.0
2020-Aug-07 21:30 093 0 gusting 2 25.0
2020-Aug-07 21:15 059 0 gusting 2 25.0
2020-Aug-07 21:00 076 0 gusting 2 25.0
2020-Aug-07 20:45 090 1 gusting 2 25.0
2020-Aug-07 20:30 070 0 gusting 3 24.4
2020-Aug-07 20:15 082 0 gusting 2 23.9
2020-Aug-07 20:00 082 0 gusting 1 23.3